Погода в Ереване

Погода в Ереване : погода сейчас, прогноз погоды и архив. Всё, что Вы хотите узнать о погоде в Ереване!

Поиск расширенной информации на нашем сайте:

Другие новости

Новости СМИ2

Главная страница сайта

Новости сайта

02.10.2013

Напоминаем, что на нашем новом сайте вы можете получить высокодетализированные прогнозы погоды по пунктам России, СНГ и мира (включающие важные для авиации метеовеличины, такие как направление и скорость ветра, видимость, явления погоды, количество и форма облачности, нижняя и верхняя граница облачности), а также ознакомиться с разнообразными материалами по авиационной метеорологии и подборкой полезных ссылок на эту тему.

Сайт Метеоцентр.Азия посвящён разработке технологий оптимизации авиаметеорологического обслуживания, включая проектирование и перспективное создание нескольких автоматизированных авиаметеорологических систем:
- система выпуска высокодетальных прогностических карт явлений погоды для нижнего воздушного пространства по России и ближнему зарубежью;
- система верификации прогнозов TAF (выпускаемых синоптиками официальных АМСГ РФ и ближнего зарубежья) и AUTOTAF (выпускаемых сайтом Метеоцентр.Азия) - выявление ошибок, онлайн-сопоставление с фактической погодой METAR, автоматическое внесение коррективов в прогнозы при резком отклонении фактической погоды от прогноза, подсчёт оправдываемости прогнозов по элементам и в целом;
- система обработки, анализа и отображения авиаметеорологической информации для применения провайдерами метеорологической информации.

Рекомендуем: Порекомендовали элькарнитин цена и я похудела на 10 кг!

Погода в Ереване - сегодня

Время (UTC), дата Ветер
(°,м/с) 
Видим.   Явления Облачность Т
(°С)
Тd
(°С)
f(%) Тe
(°С)
Pmin
(гПа)
dP
(гПа)
Po
(мм)
O2
(г/м3)
Тmin Tmax R s Состояние
почвы
09 24.06.17 170 (Ю) 20000 м    1/1 1000 м 
[Cu hum]
+28.1 +9.4 31 +30  1007.9  -1.5  687  249           
12 24.06.17 230 (ЮЗ) 20000 м    1/1 1000 м 
[Cu hum]
+31.2 +10.7 28 +35  1004.5  -2.2  685  246           
15 24.06.17 200 (Ю) 20000 м    1/0 средняя 
[Ac lent]
+30.4 +6.8 23 +30  1003.4  -1.3  684  247           
18 24.06.17 020 (С) 20000 м    3/0 средняя 
[Ac trans]
+25.3 +12.3 44 +32  1005.5  0.6  685  250    +31.9       
21 24.06.17 030 (СВ) 20000 м    3/0 средняя 
[Ac trans]
+23.4 +12 49 +29  1006.6  0.4  685  252           
00 25.06.17 080 (В) 20000 м    3/0 средняя 
[Ac trans]
+20.2 +11.1 56 +25  1008.9  1.1  686  255           
03 25.06.17 150 (ЮВ) 20000 м    3/0 средняя, верхняя 
[Ac trans|Cc]
+19.7 +11.3 58 +26  1009.7  0.6  686  256           
06 25.06.17 150 (ЮВ) 20000 м    3/3 1000 м 
[Cu hum]
+25.4 +7 31 +25  1008.6  0.6  687  252  +18.7         
09 25.06.17 250 (З) 20000 м    3/3 1000 м кучево-дожд. 
[Cb cap]
+30.2 +3.6 18 +30  1006.3  -0.8  686  248           
12 25.06.17 190 (Ю) 20000 м    4/3 1000 м средняя 
[Cu hum|Ac cuf]
+32.9 +4.6 17 +33  1003.4  -1.8  685  246           
15 25.06.17 030 (СВ) 20000 м    1/0 средняя 
[Ac cuf]
+31.5 +9.2 25 +33  1003.4  -0.3  685  246           
18 25.06.17 030 (СВ) 20000 м    ясно 
+26.1 +9.2 34 +28  1007.2  1.9  686  251    +33.7       
21 25.06.17 320 (СЗ) 20000 м    ясно 
+23.9 +8.6 38 +25  1009.4  1.8  688  253           
00 26.06.17 120 (ЮВ) 20000 м    ясно 
+18.5 +9.4 55 +22  1012.3  0.6  688  258           
03 26.06.17 330 (СЗ) 20000 м    ясно 
+18 +9.3 57 +21  1014  1.3  689  259           
06 26.06.17 180 (Ю) 20000 м    ясно 
+24.5 +12.1 46 +31  1011.9  0.1  689  252  +15.5         
09 26.06.17 200 (Ю) 20000 м    3/3 1000 м 
[Cu hum]
+30.1 +11.3 31 +35  1008.9  -1.2  688  248           
12 26.06.17 260 (З) 20000 м    3/3 1000 м 
[Cu med, cong]
+33 +8.6 22 +34  1005.5  -2.2  686  245           
15 26.06.17 030 (СВ) 20000 м    3/3 1000 м 
[Cu med, cong]
+30.2 +6.2 22 +30  1005.7  -0.7  686  248           
18 26.06.17 040 (СВ) 10-18  20000 м    1/0 средняя 
[Ac trans]
+25.8 +5 26 +26  1008.2  687  252    +33.7       
21 26.06.17 040 (СВ) 20000 м    1/0 средняя 
[Ac trans]
+24.4 +10.4 41 +28  1009.9  1.3  688  252           
00 27.06.17 060 (СВ) 20000 м    1/0 средняя 
[Ac trans]
+21.6 +10.3 49 +25  1011  0.1  688  255           
03 27.06.17 150 (ЮВ) 20000 м    ясно 
+21 +13.5 62 +29  1012.1  689  255           
06 27.06.17 190 (Ю) 20000 м    ясно 
+27.1 +14.3 45 +37  1010.3  0.1  689  249  +20.3         
09 27.06.17 200 (Ю) 20000 м    ясно 
+31.7 +13.5 33 +40  1006.8  -1.8  687  245           
Время (UTC), дата Ветер
(°,м/с) 
Видим.   Явления Облачность Т
(°С)
Тd
(°С)
f(%) Тe
(°С)
Pmin
(гПа)
dP
(гПа)
Po
(мм)
O2
(г/м3)
Тmin Tmax R s Состояние
почвы

Для получения пояснительной информации подведите курсор к названию столбца.

ПОГОДА в Ереване - архив

Всё, что Вы хотите узнать о погоде в Ереване - удобно и подробно!

Выберите нужную дату (начиная с 1 января 2015* года) и нажмите кнопку "Найти".
Будут отображены архивные сводки погоды по пункту Ереван, начиная с указанной даты.


Отображать данные в формате CSV (для использования в таблицах Excel)


Внимание! Наш архив погоды предназначен исключительно для личного некоммерческого использования в познавательных целях. Если Вам необходимы официальные справки о состоянии погоды (для производственных, юридических, коммерческих и т.п. целей), обращайтесь в органы Росгидромета.

*Примечание: данная дата относится к архиву по метеостанциям СССР (Россия, СНГ, Балтия).
Архив по метеостанциям Зарубежной Европы и Азии (кроме Китая) хранится 10 дней, по другим регионам земного шара (Китай, Африка, Америка, Австралия, Океания) - 1 день.

Ереван - район местоположения метеостанции


Название, широта, долгота, высота метеостанции:
Ереван (Звартноц) 40.1°ш. 44.4°д. 865 м над ур. моря [Армения]

Дополнительная информация

В oтличие oт бoльшинства пoгoдных сайтoв мы публикуем пoдрoбную метеoинфoрмацию в детальнoм прoфессиoнальнoм фoрмате.

Характеристики температуры и влажнoсти вoздуха измеряются на высoте 2 м в тени вдали oт зданий и деревьев.
Скoрoсть ветра измеряется на высoте 10 м (на урoвне рoста челoвека скoрoсть ветра ниже в 1.5-2 раза). Если метеoстанция нахoдится в гoрoде или в лесу, тo скoрoсть ветра занижена на 2-4 м/с пo сравнению с oткрытым местoм. Скoрoсть ветра над акватoриями крупных рек и oзёр, а также на вершинах хoлмoв на 2-5 м/с выше, чем в oбычных услoвиях.
Атмoсфернoе давление в разных тoчках местнoсти мoжет значительнo oтличаться oт давления на метеoстанции, в зависимoсти oт услoвий рельефа (при пoдъёме на 10 м давление пoнижается примернo на 1 мм рт.ст.).